[[[{"header":{"parameterUnit":"kt","parameterCategory":2,"dx":1,"dy":1,"la1":30.253999710083008,"la2":30.299108505249023,"lo1":-89.0895004272461,"lo2":-89.04439544677734,"nx":28,"ny":28,"refTime":"2022-10-21T21:00:00:Z","depth":0,"parameterNumber":1,"parameterNumberName":"U-component_of_WINDS"},"data":[-4.1879,-4.1965,-4.1994,-4.2106,-4.2151,-4.2232,-4.227,-4.2322,-4.237,-4.2471,-4.2534,-4.2571,-4.2629,-4.2711,-4.278,-4.2794,-4.282,-4.2833,-4.2847,-4.277,-4.2761,-4.2753,-4.2733,-4.2839,-4.2839,-4.2921,-4.2921,-4.2922,-4.1826,-4.1871,-4.1939,-4.2022,-4.2081,-4.2087,-4.2154,-4.2202,-4.2274,-4.2334,-4.2397,-4.2487,-4.2561,-4.2616,-4.2692,-4.2734,-4.2739,-4.2752,-4.2747,-4.2756,-4.2676,-4.2655,-4.2746,-4.2746,-4.2746,-4.2746,-4.2746,-4.2746,-4.1737,-4.1787,-4.1854,-4.1927,-4.1976,-4.2032,-4.2085,-4.2128,-4.2194,-4.2276,-4.2296,-4.2377,-4.2441,-4.2545,-4.2586,-4.265,-4.264,-4.2661,-4.2666,-4.267,-4.2671,-4.2547,-4.2665,-4.2664,-4.2664,-4.2664,-4.2664,0,-4.1678,-4.1698,-4.1763,-4.1838,-4.1892,-4.1951,-4.201,-4.2044,-4.2092,-4.2144,-4.2221,-4.227,-4.2367,-4.2441,-4.2517,-4.2555,-4.2562,-4.2567,-4.2582,-4.257,-4.2553,-4.2561,-4.2428,-4.2562,-4.2561,-4.256,-4.256,-4.256,-4.1587,-4.1643,-4.1724,-4.1767,-4.1805,-4.1872,-4.1917,-4.1956,-4.2002,-4.208,-4.2122,-4.2198,-4.226,-4.2378,-4.2424,-4.2496,-4.2499,-4.2547,-4.2509,-4.2499,-4.2497,-4.2492,-4.2497,-4.2552,-4.2553,-4.2553,-4.2554,0,-4.1533,-4.1576,-4.167,-4.1744,-4.1765,-4.1821,-4.1883,-4.1935,-4.197,-4.2045,-4.2065,-4.2118,-4.2192,-4.2231,-4.2323,-4.2341,-4.2435,-4.2438,-4.2414,-4.2415,-4.246,-4.2454,-4.2604,-4.2626,-4.2519,-4.252,-4.2521,0,-4.147,-4.1541,-4.16,-4.1652,-4.1733,-4.1768,-4.1847,-4.1883,-4.1937,-4.1997,-4.2013,-4.2069,-4.2109,-4.2171,-4.2197,-4.2281,-4.2298,-4.2315,-4.232,-4.2312,-4.2309,-4.2332,-4.2325,-4.2333,-4.2332,-4.2332,-4.2331,0,-4.1377,-4.1492,-4.1578,-4.161,-4.1693,-4.1733,-4.1769,-4.1829,-4.1872,-4.1934,-4.1963,-4.2033,-4.207,-4.2125,-4.2157,-4.213,-4.2261,-4.2229,-4.2278,-4.2277,-4.23,-4.2297,-4.2425,-4.233,-4.233,-4.2329,-4.2329,0,-4.133,-4.1393,-4.1511,-4.158,-4.1608,-4.1665,-4.1735,-4.1792,-4.1853,-4.1873,-4.1922,-4.1935,-4.2011,-4.1978,-4.2084,-4.2039,-4.2076,-4.2099,-4.2104,-4.2108,-4.2068,-4.2131,-4.2252,-4.2264,-4.212,-4.2118,-4.2117,0,-4.1212,-4.1341,-4.137,-4.1481,-4.1545,-4.1557,-4.162,-4.1673,-4.1704,-4.1763,-4.1798,-4.1864,-4.1847,-4.1872,-4.192,-4.1957,-4.2015,-4.1951,-4.2032,-4.2035,-4.2013,-4.2126,-4.2132,-4.2222,-4.2095,-4.2097,-4.2099,0,-4.1124,-4.1223,-4.124,-4.1278,-4.1352,-4.1405,-4.1479,-4.1551,-4.1588,-4.1646,-4.1706,-4.1801,-4.1792,-4.1832,-4.1849,-4.1896,-4.1977,-4.1879,-4.188,-4.1893,-4.2087,-4.2093,-4.2108,-4.1978,-4.198,-4.1982,-4.2082,0,-4.104,-4.1109,-4.1158,-4.1238,-4.1285,-4.1356,-4.1393,-4.1438,-4.1449,-4.1479,-4.1569,-4.1619,-4.1691,-4.1718,-4.1728,-4.1826,-4.1814,-4.1802,-4.1767,-4.1842,-4.1875,-4.1889,-4.1715,-4.1714,-4.1714,-4.1713,0,0,-4.0914,-4.1012,-4.1039,-4.111,-4.115,-4.1158,-4.123,-4.127,-4.135,-4.1378,-4.1361,-4.1499,-4.1539,-4.1644,-4.1671,-4.17,-4.172,-4.1691,-4.1807,-4.1817,-4.1827,-4.1862,-4.1876,-4.1712,-4.1712,-4.1711,-4.1711,0,-4.089,-4.0933,-4.1004,-4.1047,-4.1111,-4.1138,-4.1156,-4.122,-4.1241,-4.1329,-4.1331,-4.1389,-4.1497,-4.154,-4.1575,-4.1682,-4.1677,-4.1701,-4.1745,-4.1799,-4.181,-4.182,-4.1857,-4.187,-4.171,-4.171,-4.171,0,-4.0807,-4.0855,-4.0893,-4.0985,-4.1026,-4.1091,-4.1066,-4.1134,-4.1182,-4.1183,-4.1268,-4.1301,-4.136,-4.1454,-4.1498,-4.1482,-4.1637,-4.1594,-4.1599,-4.1603,-4.1657,-4.167,-4.1682,-4.1524,-4.1523,-4.1522,0,0,-4.078,-4.0843,-4.0903,-4.0982,-4.1008,-4.1048,-4.1085,-4.1098,-4.1152,-4.1173,-4.1212,-4.1264,-4.1327,-4.1367,-4.1428,-4.1527,-4.154,-4.1569,-4.1578,-4.1585,-4.1593,-4.1648,-4.1662,-4.1519,-4.1519,-4.1519,0,0,-4.0766,-4.0839,-4.0839,-4.0935,-4.0987,-4.1049,-4.1095,-4.1097,-4.1155,-4.115,-4.1174,-4.1188,-4.1277,-4.1307,-4.1263,-4.1416,-4.1381,-4.1393,-4.1391,-4.1403,-4.1412,-4.1401,-4.124,0,0,0,0,0,-4.0757,-4.083,-4.083,-4.0851,-4.0965,-4.105,-4.1064,-4.1086,-4.1062,-4.1099,-4.1132,-4.1125,-4.1289,-4.1251,-4.1271,-4.1318,-4.148,-4.1487,-4.1494,-4.1516,-4.1528,-4.1538,0,0,0,0,0,0,-4.0766,-4.0792,-4.0828,-4.0893,-4.0919,-4.1047,-4.1011,-4.1019,-4.1058,-4.1056,-4.1119,-4.1128,-4.1147,-4.1242,-4.126,-4.1304,-4.1234,-4.1483,-4.1489,-4.1494,-4.152,-4.153,-4.1538,0,0,0,0,0,-4.0773,-4.0794,-4.0971,-4.0892,-4.0914,-4.0961,-4.1008,-4.1015,-4.1045,-4.1096,-4.1104,-4.1058,-4.1147,-4.1164,-4.1252,-4.1295,-4.1222,-4.1229,-4.1487,-4.1492,-4.1496,-4.1525,0,0,0,0,0,0,-4.0778,-4.08,-4.0976,-4.0984,-4.0865,-4.0954,-4.0969,-4.1011,-4.1083,-4.1092,-4.1035,-4.1032,-4.1149,-4.1161,-4.1174,-4.1291,-4.1212,-4.1219,-4.1223,-4.149,-4.1494,-4.1497,0,0,0,0,0,0,-4.0789,-4.0806,-4.098,-4.0945,-4.0949,-4.0948,-4.0961,-4.1038,-4.1084,-4.1018,-4.1018,-4.1033,-4.1129,-4.116,-4.117,-4.129,-4.1204,-4.1211,-4.1215,-4.1218,-4.1493,-4.1496,0,0,0,0,0,0,-4.0797,-4.0812,-4.0943,-4.0946,-4.0949,-4.1036,-4.1016,-4.1132,-4.1055,-4.1014,-4.1049,-4.1046,-4.1128,-4.1138,-4.1167,-4.1283,-4.1288,-4.1204,-4.1209,-4.1212,-4.1214,0,0,0,0,0,0,0,-4.0803,-4.0697,-4.0931,-4.0947,-4.095,-4.1054,-4.1056,-4.1058,-4.1054,-4.1052,-4.1049,-4.1047,-4.1168,-4.1175,-4.1182,-4.1277,0,0,-4.1204,-4.1207,0,0,0,0,0,0,0,0,-4.0691,-4.0696,-4.0931,-4.0933,-4.0934,-4.1054,-4.1056,-4.1058,-4.1054,-4.1052,-4.105,-4.1048,-4.1169,-4.1175,-4.1181,0,0,0,0,0,0,0,0,0,0,0,0,0,0,0,-4.0931,-4.0933,0,-4.1055,-4.1056,-4.1057,-4.1054,-4.1052,-4.105,-4.1049,-4.1171,-4.1176,-4.118,0,0,0,0,0,0,0,0,0,0,0,0,0,0,0,0,0,0,0,0,0,0,0,0,0,0,0,0,0,0,0,0,0,0,0,0,0,0,0,0,0,0,0,0,0,0,0,0,0,0,0,0,0,0,0,0,0,0,0,0,0,0,0,0,0,0,0,0,0]}],[{"header":{"parameterUnit":"kt","parameterCategory":2,"dx":1,"dy":1,"la1":30.253999710083008,"la2":30.299108505249023,"lo1":-89.0895004272461,"lo2":-89.04439544677734,"nx":28,"ny":28,"refTime":"2022-10-21T21:00:00:Z","depth":0,"parameterNumber":2,"parameterNumberName":"V-component_of_WINDS"},"data":[1.7876,1.7817,1.7784,1.7701,1.7657,1.7593,1.7559,1.7511,1.7463,1.7381,1.7327,1.7284,1.722,1.7145,1.7082,1.7063,1.7039,1.7045,1.7021,1.703,1.7029,1.7027,1.704,1.7041,1.7041,1.7017,1.7017,1.7017,1.7889,1.7846,1.7792,1.7716,1.7669,1.7644,1.7581,1.7542,1.7485,1.7425,1.7369,1.7293,1.7226,1.7157,1.7087,1.7056,1.7037,1.7039,1.704,1.7029,1.7038,1.7052,1.7055,1.7055,1.7055,1.7055,1.7055,1.7055,1.7905,1.7871,1.7806,1.7746,1.7698,1.7647,1.7607,1.7556,1.75,1.7424,1.7391,1.7324,1.7254,1.7149,1.7103,1.7048,1.7039,1.7028,1.7024,1.7022,1.7026,1.7065,1.7034,1.7034,1.7034,1.7033,1.7033,0,1.7905,1.7879,1.7824,1.7759,1.7713,1.7659,1.7602,1.7576,1.7503,1.746,1.7393,1.7348,1.7258,1.7189,1.7113,1.7066,1.703,1.7022,1.7014,1.7029,1.7054,1.704,1.7056,1.7022,1.7022,1.7022,1.7022,1.7022,1.7917,1.7881,1.7794,1.776,1.772,1.7666,1.7625,1.7564,1.7523,1.7442,1.7413,1.7343,1.7284,1.718,1.7114,1.7045,1.7026,1.7018,1.7015,1.7033,1.7025,1.7028,1.7023,1.7019,1.7019,1.702,1.702,0,1.7928,1.787,1.7802,1.7717,1.7695,1.7659,1.7586,1.7547,1.7499,1.7439,1.7421,1.7344,1.7278,1.7213,1.7122,1.709,1.7027,1.7011,1.7052,1.7045,1.7031,1.7033,1.6995,1.6987,1.6987,1.6987,1.6987,0,1.7914,1.7868,1.7785,1.7748,1.7694,1.7634,1.7582,1.7535,1.7474,1.7426,1.7377,1.7332,1.7255,1.7201,1.7153,1.709,1.7072,1.7043,1.7031,1.7047,1.7051,1.7021,1.7021,1.7004,1.7005,1.7005,1.7005,0,1.7936,1.7836,1.7776,1.7743,1.7646,1.7619,1.7577,1.7507,1.7467,1.7403,1.7376,1.7305,1.7266,1.7212,1.7151,1.7152,1.7072,1.706,1.7042,1.7044,1.7026,1.7028,1.7013,1.7005,1.7005,1.7005,1.7006,0,1.7915,1.7855,1.7777,1.7695,1.7671,1.763,1.7559,1.7509,1.7438,1.7406,1.7355,1.7313,1.7253,1.7246,1.7161,1.7179,1.7143,1.7109,1.7107,1.7096,1.7089,1.7089,1.7082,1.7079,1.7089,1.7089,1.709,0,1.7955,1.786,1.7807,1.7733,1.768,1.7629,1.7582,1.7521,1.7474,1.7421,1.7367,1.7305,1.7286,1.7257,1.7224,1.7166,1.7142,1.7167,1.7086,1.7084,1.7107,1.7101,1.7116,1.7092,1.7098,1.7097,1.7096,0,1.7978,1.7862,1.7852,1.7812,1.7722,1.7676,1.7623,1.7549,1.7516,1.7452,1.7404,1.7314,1.7296,1.7248,1.7205,1.7174,1.7156,1.7157,1.7154,1.7159,1.7096,1.7111,1.7107,1.7134,1.7133,1.7132,1.7102,0,1.796,1.7904,1.7876,1.7788,1.7742,1.7691,1.7623,1.7584,1.7549,1.75,1.7428,1.7357,1.7278,1.7255,1.7219,1.7169,1.7166,1.7146,1.7132,1.7129,1.7118,1.7113,1.7156,1.7155,1.7154,1.7154,0,0,1.8013,1.793,1.7872,1.7818,1.7776,1.7722,1.7674,1.7625,1.7528,1.7499,1.7492,1.7355,1.7297,1.7216,1.7209,1.7177,1.7161,1.7164,1.7131,1.7129,1.7127,1.7116,1.7112,1.7152,1.7152,1.7152,1.7152,0,1.7992,1.7939,1.7893,1.7841,1.7762,1.7713,1.7702,1.7613,1.7578,1.7507,1.746,1.7408,1.7298,1.7243,1.7201,1.7173,1.7138,1.7154,1.7163,1.7127,1.7126,1.7125,1.7114,1.7111,1.715,1.715,1.715,0,1.8002,1.7938,1.7909,1.7811,1.7757,1.7702,1.7673,1.7616,1.7574,1.7512,1.7441,1.7392,1.7311,1.7243,1.721,1.7201,1.7122,1.7134,1.7136,1.713,1.7091,1.709,1.7089,1.7104,1.7105,1.7105,0,0,1.7992,1.794,1.785,1.78,1.7771,1.7696,1.7659,1.7619,1.755,1.7522,1.7457,1.7389,1.7325,1.7284,1.7219,1.7154,1.7131,1.7131,1.7133,1.7135,1.7131,1.7093,1.7091,1.7105,1.7105,1.7105,0,0,1.7986,1.7882,1.7858,1.7793,1.7731,1.7636,1.7608,1.7576,1.7512,1.7509,1.7436,1.7414,1.7349,1.7301,1.7317,1.7212,1.7201,1.7195,1.7246,1.7248,1.725,1.7262,1.7274,0,0,0,0,0,1.7929,1.7895,1.7875,1.7854,1.7727,1.7648,1.7631,1.7572,1.7566,1.7545,1.7486,1.7451,1.7295,1.7308,1.7286,1.7268,1.7113,1.7111,1.711,1.716,1.7163,1.7165,0,0,0,0,0,0,1.7921,1.7895,1.7876,1.7782,1.7753,1.7649,1.7625,1.7608,1.7566,1.7561,1.7464,1.7448,1.7393,1.7314,1.7296,1.728,1.728,1.7112,1.7111,1.711,1.7161,1.7163,1.7165,0,0,0,0,0,1.7913,1.7893,1.7705,1.7782,1.7756,1.7669,1.7626,1.7611,1.7578,1.7485,1.7468,1.7537,1.7395,1.7375,1.7303,1.729,1.7292,1.7285,1.7111,1.711,1.711,1.7162,0,0,0,0,0,0,1.7908,1.7877,1.7699,1.7689,1.779,1.7674,1.7654,1.7615,1.7503,1.7486,1.7555,1.7552,1.7395,1.7379,1.7364,1.7297,1.7302,1.7295,1.7291,1.7111,1.711,1.7109,0,0,0,0,0,0,1.7888,1.7869,1.7694,1.7708,1.7699,1.7678,1.766,1.759,1.7502,1.7578,1.7573,1.7555,1.7416,1.7383,1.7371,1.7263,1.731,1.7303,1.7299,1.7296,1.711,1.711,0,0,0,0,0,0,1.7879,1.7863,1.771,1.7703,1.7695,1.7578,1.7614,1.7486,1.7518,1.7584,1.7519,1.7519,1.742,1.7407,1.7376,1.7273,1.7265,1.731,1.7305,1.7302,1.73,0,0,0,0,0,0,0,1.7872,1.7995,1.7759,1.7699,1.7692,1.7596,1.7593,1.759,1.7518,1.7518,1.7519,1.7519,1.7347,1.734,1.7333,1.7281,0,0,1.731,1.7307,0,0,0,0,0,0,0,0,1.8,1.7996,1.7759,1.7756,1.7754,1.7596,1.7593,1.7591,1.7518,1.7518,1.7519,1.7519,1.7345,1.7339,1.7333,0,0,0,0,0,0,0,0,0,0,0,0,0,0,0,1.7758,1.7757,0,1.7595,1.7593,1.7592,1.7518,1.7518,1.7519,1.7519,1.7343,1.7339,1.7334,0,0,0,0,0,0,0,0,0,0,0,0,0,0,0,0,0,0,0,0,0,0,0,0,0,0,0,0,0,0,0,0,0,0,0,0,0,0,0,0,0,0,0,0,0,0,0,0,0,0,0,0,0,0,0,0,0,0,0,0,0,0,0,0,0,0,0,0,0]}]]]